Location: Abundant Grace Fellowship
(35.0349°N, 90.0924°W)
Time: 15:53:26
(UTC+00:00)

SL-24 R/B - RUBIN 2 - Pass Details

Date: 18 January 2026
Orbit: 602 x 985 km, 64.6° (Epoch: 18 February)

Event Time Altitude Azimuth Distance (km) Brightness Sun altitude
Rises 00:04:55 0° 337° (NNW) 2,856 7.0 -10.5°
Reaches altitude 10° 00:07:14 10° 344° (NNW) 1,951 6.1 -11.0°
Maximum altitude 00:11:24 44° 57° (ENE) 854 3.8 -11.8°
Drops below altitude 10° 00:15:43 10° 130° (SE) 2,022 5.9 -12.6°
Sets 00:18:09 0° 137° (SE) 2,974 6.8 -13.1°
